TimeEDT,TemperatureF,Dew PointF,Humidity,Sea Level PressureIn,VisibilityMPH,Wind Direction,Wind SpeedMPH,Gust SpeedMPH,PrecipitationIn,Events,Conditions,WindDirDegrees,DateUTC
12:53 AM,55.0,53.1,93,29.87,9.0,Calm,Calm,-,N/A,,Mostly Cloudy,0,2013-03-19 04:53:00
1:30 AM,55.4,53.6,94,29.86,10.0,NNW,15.0,21.9,N/A,,Overcast,330,2013-03-19 05:30:00
1:33 AM,55.4,53.6,94,29.87,9.0,North,8.1,21.9,N/A,Thunderstorm,Overcast,360,2013-03-19 05:33:00
1:53 AM,55.9,54.0,93,29.86,2.5,North,6.9,-,0.09,Rain-Thunderstorm,Heavy Thunderstorms and Rain,360,2013-03-19 05:53:00
2:16 AM,55.4,53.6,94,29.87,1.2,NNW,9.2,-,0.36,Rain-Thunderstorm,Heavy Thunderstorms and Rain,330,2013-03-19 06:16:00
2:20 AM,55.4,53.6,94,29.86,1.5,NNW,9.2,-,0.42,Rain-Thunderstorm,Heavy Thunderstorms and Rain,330,2013-03-19 06:20:00
2:27 AM,55.4,53.6,94,29.85,2.0,Calm,Calm,-,0.48,Rain-Thunderstorm,Heavy Thunderstorms and Rain,0,2013-03-19 06:27:00
2:33 AM,55.4,55.4,100,29.85,3.0,Calm,Calm,-,0.50,Rain-Thunderstorm,Rain,0,2013-03-19 06:33:00
2:40 AM,55.4,53.6,94,29.84,4.0,Calm,Calm,-,0.52,Rain,Rain,0,2013-03-19 06:40:00
2:53 AM,55.9,54.0,93,29.82,6.0,East,4.6,-,0.55,Rain,Light Rain,80,2013-03-19 06:53:00
3:53 AM,57.0,55.0,93,29.75,8.0,ESE,6.9,-,0.01,,Scattered Clouds,120,2013-03-19 07:53:00
4:07 AM,57.2,55.4,94,29.75,7.0,Calm,Calm,-,N/A,,Scattered Clouds,0,2013-03-19 08:07:00
4:20 AM,55.4,55.4,100,29.76,6.0,SSE,4.6,-,N/A,,Mostly Cloudy,150,2013-03-19 08:20:00
4:53 AM,57.0,55.0,93,29.80,5.0,West,12.7,-,N/A,,Overcast,280,2013-03-19 08:53:00
5:20 AM,55.4,55.4,100,29.82,6.0,West,8.1,-,N/A,,Overcast,280,2013-03-19 09:20:00
5:53 AM,55.9,54.0,93,29.83,5.0,West,8.1,-,N/A,,Overcast,270,2013-03-19 09:53:00
6:53 AM,55.0,53.1,93,29.84,9.0,WNW,10.4,-,N/A,,Overcast,300,2013-03-19 10:53:00
7:23 AM,53.6,51.8,94,29.85,4.0,WNW,10.4,-,N/A,,Overcast,300,2013-03-19 11:23:00
7:53 AM,53.1,51.1,93,29.86,7.0,NW,9.2,-,N/A,,Overcast,310,2013-03-19 11:53:00
8:03 AM,53.6,51.8,94,29.87,7.0,WNW,10.4,-,N/A,,Overcast,300,2013-03-19 12:03:00
8:53 AM,53.1,50.0,89,29.90,7.0,WNW,12.7,-,N/A,,Overcast,300,2013-03-19 12:53:00
9:40 AM,53.6,50.0,88,29.88,10.0,WNW,11.5,-,N/A,,Overcast,290,2013-03-19 13:40:00
9:53 AM,54.0,50.0,86,29.88,10.0,West,11.5,-,N/A,,Mostly Cloudy,280,2013-03-19 13:53:00
10:12 AM,53.6,50.0,88,29.88,10.0,WNW,12.7,-,N/A,,Mostly Cloudy,290,2013-03-19 14:12:00
10:37 AM,55.4,50.0,82,29.88,10.0,WNW,10.4,-,N/A,,Scattered Clouds,290,2013-03-19 14:37:00
10:53 AM,55.0,48.9,80,29.88,10.0,WNW,13.8,-,N/A,,Partly Cloudy,300,2013-03-19 14:53:00
11:53 AM,60.1,50.0,69,29.90,10.0,WNW,11.5,19.6,N/A,,Clear,300,2013-03-19 15:53:00
12:53 PM,60.1,50.0,69,29.91,10.0,NW,13.8,19.6,N/A,,Partly Cloudy,320,2013-03-19 16:53:00
1:53 PM,64.0,50.0,60,29.89,10.0,NW,16.1,-,N/A,,Clear,320,2013-03-19 17:53:00
2:53 PM,66.0,50.0,56,29.86,10.0,West,11.5,16.1,N/A,,Clear,280,2013-03-19 18:53:00
3:53 PM,68.0,46.9,47,29.85,10.0,WNW,11.5,-,N/A,,Clear,300,2013-03-19 19:53:00
4:53 PM,70.0,42.1,36,29.86,10.0,WNW,12.7,-,N/A,,Clear,290,2013-03-19 20:53:00
5:53 PM,70.0,37.9,31,29.87,10.0,WNW,11.5,-,N/A,,Clear,300,2013-03-19 21:53:00
6:53 PM,66.9,39.0,36,29.90,10.0,West,8.1,-,N/A,,Clear,280,2013-03-19 22:53:00
7:53 PM,63.0,37.9,40,29.91,10.0,West,5.8,-,N/A,,Clear,280,2013-03-19 23:53:00
8:53 PM,60.1,37.9,44,29.94,10.0,WNW,5.8,-,N/A,,Clear,290,2013-03-20 00:53:00
9:53 PM,57.0,34.0,42,29.97,10.0,NW,8.1,-,N/A,,Clear,320,2013-03-20 01:53:00
10:53 PM,55.0,30.9,40,29.98,10.0,NW,4.6,-,N/A,,Clear,320,2013-03-20 02:53:00
11:53 PM,48.0,39.0,71,29.99,10.0,NNW,3.5,-,N/A,,Clear,340,2013-03-20 03:53:00